FW4773 Weather Reports


Display with metric or nautical units.
time (UTC)temp
F
wind
direction
speed
MPH
gust
MPH
rain 1hr
in
rain 24hr
in
rain mn
in
humidity
%
barometer
mb
20260904130001 75 308 0.0 4.0 0.00 0.44 0.44 90 1017.2
20260904124605 74 174 0.0 3.0 0.00 0.44 0.44 93 1017.2
20260904123059 73 284 1.0 3.0 0.00 0.44 0.44 94 1017.4
20260904121556 73 211 0.0 3.0 0.00 0.44 0.44 94 1017.2
20260904120100 72 210 0.0 2.0 0.00 0.44 0.44 95 1017.3
20260904114600 72 302 0.0 1.0 0.00 0.44 0.44 95 1017.2
20260904113050 0 0.0 0.0 0.00 0.44 0.44 1017.3
20260904111548 0 0.0 0.0 0.00 0.44 0.44 1017.2
20260904110046 0 0.0 0.0 0.00 0.44 0.44 1017.2
20260904104605 0 0.0 0.0 0.00 0.44 0.44 1016.7
20260904103043 0 0.0 0.0 0.00 0.44 0.44 1016.7
20260904101544 0 0.0 0.0 0.00 0.44 0.44 1016.8
20260904100056 0 0.0 0.0 0.00 0.44 0.44 1016.8
20260904094550 0 0.0 0.0 0.00 0.44 0.44 1016.5
20260904093036 0 220 0.0 1.0 0.00 0.44 0.44 96 1016.2
20260904091535 70 247 0.0 1.0 0.00 0.44 0.44 96 1016.0
20260904090030 70 247 0.0 1.0 0.00 0.44 0.44 96 1016.0
20260904084529 70 261 0.0 0.0 0.00 0.44 0.44 95 1016.2
20260904083027 71 261 0.0 0.0 0.00 0.44 0.44 95 1016.3
20260904081525 71 261 0.0 1.0 0.00 0.44 0.44 95 1016.5
20260904080024 71 302 0.0 0.0 0.00 0.44 0.44 95 1016.6
20260904074523 71 323 0.0 0.0 0.00 0.44 0.44 95 1016.6
20260904073025 71 323 0.0 1.0 0.00 0.44 0.44 95 1016.8
20260904071519 71 205 0.0 2.0 0.00 0.44 0.44 95 1016.5
20260904070034 71 203 0.0 0.0 0.00 0.44 0.44 95 1016.4
20260904064515 71 203 0.0 3.0 0.00 0.44 0.44 94 1016.4
20260904063013 71 209 0.0 2.0 0.00 0.44 0.44 95 1016.7
20260904061511 71 347 0.0 3.0 0.00 0.44 0.44 94 1016.6
20260904060008 71 318 1.0 3.0 0.01 0.44 0.44 94 1016.3
20260904054506 71 210 2.0 5.0 0.02 0.44 0.44 94 1015.6
20260904053003 71 206 0.0 3.0 0.15 0.44 0.44 94 1015.3
20260904051610 71 207 0.0 2.0 0.44 0.44 0.44 93 1016.2
20260904050053 71 202 2.0 6.0 0.43 0.43 0.43 93 1017.3
20260904044600 72 212 2.0 4.0 0.42 0.42 0.42 92 1018.3
20260904043045 74 299 4.0 18.0 0.28 0.28 0.28 89 1018.6
20260904041540 80 198 3.0 4.0 0.00 0.00 0.00 88 1017.7
20260904040041 80 229 1.0 3.0 0.00 0.00 0.00 90 1016.8
20260904034531 79 3 2.0 6.0 0.00 0.00 0.00 90 1016.1
20260904033030 80 306 0.0 0.0 0.00 0.00 0.00 89 1016.0
20260904031529 80 306 0.0 0.0 0.00 0.00 0.00 89 1016.2
20260904030027 80 312 0.0 0.0 0.00 0.00 0.00 88 1016.5
20260904024528 80 312 0.0 0.0 0.00 0.00 0.00 88 1016.5
20260904023024 80 165 0.0 0.0 0.00 0.00 0.00 88 1016.5
20260904021524 80 229 0.0 0.0 0.00 0.00 0.00 88 1016.5
20260904020021 81 229 0.0 0.0 0.00 0.00 0.00 88 1016.5
20260904014518 81 224 0.0 0.0 0.00 0.00 0.00 88 1016.5
20260904013016 81 223 0.0 0.0 0.00 0.00 0.00 88 1016.2
20260904011513 81 224 0.0 0.0 0.00 0.00 0.00 88 1016.4
20260904010012 81 217 0.0 0.0 0.00 0.00 0.00 87 1016.9
20260904004509 81 217 0.0 0.0 0.00 0.00 0.00 86 1017.1
20260904003007 82 156 0.0 0.0 0.00 0.00 0.00 86 1017.1
20260904001507 82 156 0.0 0.0 0.00 0.00 0.00 83 1017.0
20260904000006 83 156 0.0 0.0 0.00 0.00 0.00 82 1016.8
20260903234502 84 231 0.0 1.0 0.00 0.00 0.00 80 1016.5
20260903233120 85 226 0.0 3.0 0.00 0.00 0.00 79 1016.2
20260903231558 85 217 1.0 2.0 0.00 0.00 0.00 78 1016.2
20260903230109 87 207 0.0 2.0 0.00 0.00 0.00 75 1016.3
20260903224618 87 198 0.0 4.0 0.00 0.00 0.00 73 1016.2
20260903223129 88 193 1.0 4.0 0.00 0.00 0.00 73 1016.0
20260903221550 88 209 2.0 5.0 0.00 0.00 0.00 72 1016.1
20260903220048 88 227 3.0 8.0 0.00 0.00 0.00 73 1016.0
20260903214550 88 206 2.0 7.0 0.00 0.00 0.00 73 1016.2
20260903213053 89 205 5.0 8.0 0.00 0.00 0.00 73 1016.2
20260903211542 89 214 4.0 8.0 0.00 0.00 0.00 71 1016.2
20260903210049 90 204 2.0 6.0 0.00 0.00 0.00 68 1016.2
20260903204531 89 232 2.0 5.0 0.00 0.00 0.00 68 1016.4
20260903203034 89 199 3.0 6.0 0.00 0.00 0.00 68 1016.3
20260903201527 90 189 2.0 5.0 0.00 0.00 0.00 67 1016.7
20260903200021 90 269 2.0 6.0 0.00 0.00 0.00 66 1016.9
20260903194533 89 253 2.0 5.0 0.00 0.00 0.00 66 1017.1
20260903193014 88 189 1.0 5.0 0.00 0.00 0.00 68 1017.4
20260903191511 88 269 2.0 7.0 0.00 0.00 0.00 66 1017.5
20260903190007 88 200 2.0 7.0 0.00 0.02 0.00 67 1017.5
20260903184504 88 226 1.0 6.0 0.00 0.02 0.00 69 1017.8
20260903183002 87 295 2.0 6.0 0.00 0.02 0.00 68 1017.6
20260903181557 87 210 3.0 8.0 0.00 0.02 0.00 70 1017.7
20260903180050 85 210 1.0 6.0 0.00 0.02 0.00 74 1018.2
20260903174544 83 208 3.0 9.0 0.00 0.12 0.00 79 1018.3
20260903173038 82 191 1.0 6.0 0.00 0.12 0.00 82 1018.6
20260903171534 81 213 1.0 4.0 0.00 0.12 0.00 84 1018.8
20260903170031 81 225 1.0 4.0 0.00 0.12 0.00 85 1019.1
20260903164526 80 209 1.0 6.0 0.00 0.12 0.00 86 1019.2
20260903163024 79 242 0.0 5.0 0.00 0.12 0.00 87 1019.7
20260903161526 80 219 0.0 4.0 0.00 0.12 0.00 87 1020.3
20260903160020 79 262 1.0 4.0 0.00 0.12 0.00 87 1020.9
20260903154516 79 306 0.0 3.0 0.00 0.12 0.00 87 1020.5
20260903153013 80 188 1.0 4.0 0.00 0.12 0.00 87 1020.0
20260903151507 79 161 2.0 4.0 0.00 0.12 0.00 88 1019.8
20260903150011 79 243 2.0 6.0 0.00 0.12 0.00 87 1019.9
20260903144507 79 225 3.0 6.0 0.00 0.12 0.00 88 1019.5
20260903143106 78 200 2.0 4.0 0.00 0.12 0.00 89 1019.7
20260903141608 77 211 1.0 5.0 0.00 0.12 0.00 90 1019.4
20260903140056 77 248 0.0 4.0 0.00 0.12 0.00 91 1019.4
20260903134551 77 212 2.0 6.0 0.00 0.12 0.00 91 1019.3
20260903133049 77 208 0.0 3.0 0.00 0.12 0.00 92 1019.9
20260903131601 76 201 0.0 1.0 0.00 0.12 0.00 93 1020.1